CW2840 Weather Reports


time (UTC)temp
F
wind
direction
speed
knots
gust
knots
rain 1hr
in
rain 24hr
in
rain mn
in
humidity
%
barometer
mb
20260901104203 79 127 0.0 1.7 0.00 0.00 0.00 85 1015.1
20260901102703 79 127 0.0 0.0 0.00 0.00 0.00 85 1014.9
20260901101202 79 127 0.0 1.7 0.00 0.00 0.00 85 1015.0
20260901095703 79 127 0.0 0.0 0.00 0.00 0.00 84 1015.0
20260901094202 79 127 0.0 1.7 0.00 0.00 0.00 84 1015.1
20260901092704 79 127 0.0 0.0 0.00 0.00 0.00 84 1015.0
20260901091202 79 127 0.0 0.0 0.00 0.00 0.00 84 1015.1
20260901085704 80 127 0.0 1.7 0.00 0.00 0.00 83 1015.1
20260901085559 80 127 0.0 1.7 0.00 0.00 0.00 83 1015.2
20260901082704 80 127 0.9 1.7 0.00 0.00 0.00 83 1015.1
20260901081202 80 127 0.0 1.7 0.00 0.00 0.00 83 1015.1
20260901075704 80 127 0.0 1.7 0.00 0.00 0.00 83 1015.3
20260901074202 80 127 1.7 1.7 0.00 0.00 0.00 83 1015.4
20260901072705 81 127 0.0 1.7 0.00 0.00 0.00 82 1015.3
20260901071202 81 127 0.0 1.7 0.00 0.00 0.00 82 1015.3
20260901065705 82 127 0.0 1.7 0.00 0.00 0.00 81 1015.3
20260901064202 82 127 0.0 1.7 0.00 0.00 0.00 80 1015.5
20260901062703 82 127 0.0 1.7 0.00 0.00 0.00 79 1015.5
20260901061203 82 127 0.0 1.7 0.00 0.00 0.00 79 1015.5
20260901060402 83 127 0.9 2.6 0.00 0.00 0.00 78 1015.6
20260901054203 83 127 0.9 1.7 0.00 0.00 0.00 77 1015.5
20260901052703 83 127 0.0 2.6 0.00 0.00 0.00 77 1015.3
20260901051202 83 127 0.0 2.6 0.00 0.00 0.00 76 1015.4
20260901045703 84 127 0.9 2.6 0.00 0.00 0.00 76 1015.2
20260901044201 84 127 1.7 4.3 0.00 0.00 0.00 75 1015.2
20260901042705 84 130 2.6 6.1 0.00 0.00 0.00 74 1015.3
20260901041202 85 120 3.5 4.3 0.00 0.00 0.00 73 1015.3
20260901035703 85 133 1.7 7.8 0.00 0.00 0.00 72 1015.2
20260901034201 86 121 4.3 19.1 0.00 0.00 0.00 70 1015.2
20260901033403 86 137 2.6 6.1 0.00 0.00 0.00 68 1014.8
20260901031201 86 157 1.7 4.3 0.00 0.00 0.00 68 1014.6
20260901025702 87 157 1.7 6.1 0.00 0.00 0.00 66 1014.3
20260901024902 87 154 3.5 7.8 0.00 0.00 0.00 66 1014.2
20260901022701 87 147 1.7 2.6 0.00 0.00 0.00 66 1014.0
20260901021159 88 147 1.7 4.3 0.00 0.00 0.00 65 1013.8
20260901015701 88 147 2.6 4.3 0.00 0.00 0.00 64 1013.7
20260901014159 88 149 1.7 6.1 0.00 0.00 0.00 63 1013.6
20260901012700 89 144 2.6 4.3 0.00 0.00 0.00 61 1013.5
20260901011159 90 133 1.7 7.8 0.00 0.00 0.00 59 1013.5
20260901005700 90 159 2.6 7.8 0.00 0.00 0.00 58 1013.4
20260901004907 91 151 2.6 7.8 0.00 0.00 0.00 57 1013.4
20260901002659 91 118 2.6 7.8 0.00 0.00 0.00 55 1013.6
20260901001158 92 199 2.6 11.3 0.00 0.00 0.00 54 1013.6
20260831235658 92 151 3.5 9.6 0.00 0.00 0.00 54 1013.7
20260831234156 92 124 1.7 12.2 0.00 0.00 0.00 54 1013.6
20260831232657 93 158 5.2 9.6 0.00 0.00 0.00 53 1013.6
20260831231155 93 165 4.3 11.3 0.00 0.00 0.00 52 1013.6
20260831225657 94 123 3.5 12.2 0.00 0.00 0.00 50 1013.5
20260831224154 94 117 5.2 11.3 0.00 0.00 0.00 50 1013.6
20260831222656 95 165 7.0 15.6 0.00 0.00 0.00 50 1013.5
20260831221154 96 166 3.5 13.9 0.00 0.00 0.00 50 1013.5
20260831215653 95 144 3.5 13.9 0.00 0.00 0.00 49 1013.5
20260831214851 95 166 5.2 17.4 0.00 0.00 0.00 51 1013.7
20260831212655 94 159 7.8 19.1 0.00 0.00 0.00 53 1013.9
20260831211153 94 179 11.3 20.9 0.00 0.00 0.00 52 1013.9
20260831210358 94 138 6.1 15.6 0.00 0.00 0.00 52 1014.1
20260831204152 95 121 3.5 9.6 0.00 0.00 0.00 47 1014.2
20260831203404 97 113 4.3 9.6 0.00 0.00 0.00 45 1014.3
20260831201152 97 109 1.7 7.8 0.00 0.00 0.00 47 1014.5
20260831195653 94 0 2.6 9.6 0.00 0.00 0.00 47 1014.7
20260831194841 98 161 3.5 11.3 0.00 0.00 0.00 44 1014.9
20260831192652 97 172 4.3 7.8 0.00 0.00 0.00 45 1015.0
20260831191151 95 186 1.7 9.6 0.00 0.00 0.00 46 1015.4
20260831185652 96 172 2.6 7.8 0.00 0.00 0.00 45 1015.5
20260831184149 94 58 1.7 13.9 0.00 0.00 0.00 49 1015.7
20260831182651 95 166 4.3 9.6 0.00 0.00 0.00 49 1015.8
20260831181149 94 175 4.3 9.6 0.00 0.00 0.00 53 1016.2
20260831175650 93 125 1.7 7.8 0.00 0.00 0.00 51 1016.3
20260831174149 92 85 1.7 9.6 0.00 0.00 0.00 56 1016.5
20260831172650 93 90 2.6 6.1 0.00 0.00 0.00 55 1016.7
20260831171848 93 186 2.6 6.1 0.00 0.00 0.00 54 1016.8
20260831165649 93 117 4.3 9.6 0.00 0.00 0.00 54 1016.9
20260831164837 91 20 0.9 7.8 0.00 0.00 0.00 59 1017.0
20260831162647 91 348 4.3 7.8 0.00 0.00 0.00 60 1017.0
20260831161147 90 164 4.3 6.1 0.00 0.00 0.00 62 1017.1
20260831155646 88 172 3.5 6.1 0.00 0.00 0.00 65 1017.2
20260831154146 88 155 2.6 6.1 0.00 0.00 0.00 59 1017.1
20260831152645 88 350 2.6 6.1 0.00 0.00 0.00 63 1016.9
20260831151145 87 99 0.9 7.8 0.00 0.00 0.00 70 1016.9
20260831145645 86 72 2.6 6.1 0.00 0.00 0.00 72 1016.9
20260831144835 85 10 1.7 6.1 0.00 0.00 0.00 73 1016.9
20260831142644 85 138 0.9 4.3 0.00 0.00 0.00 77 1016.8
20260831141144 83 90 2.6 4.3 0.00 0.00 0.00 80 1016.7
20260831135643 81 92 1.7 6.1 0.00 0.00 0.00 82 1016.6
20260831134144 80 120 1.7 4.3 0.00 0.00 0.00 84 1016.6
20260831132644 80 121 2.6 4.3 0.00 0.00 0.00 85 1016.5
20260831131143 78 124 1.7 4.3 0.00 0.00 0.00 86 1016.2
20260831125643 77 165 1.7 2.6 0.00 0.00 0.00 87 1016.2
20260831124142 77 165 0.9 2.6 0.00 0.00 0.00 87 1016.2
20260831122641 77 166 0.9 2.6 0.00 0.00 0.00 87 1015.9
20260831121842 77 165 0.0 1.7 0.00 0.00 0.00 87 1015.7
20260831115644 77 166 0.0 1.7 0.00 0.00 0.00 87 1015.5
20260831114140 77 165 0.0 1.7 0.00 0.00 0.00 87 1015.4
20260831112641 77 165 0.0 1.7 0.00 0.00 0.00 87 1015.4
20260831111140 78 165 0.0 1.7 0.00 0.00 0.00 86 1015.4
20260831110340 78 165 0.0 0.0 0.00 0.00 0.00 86 1015.3